When you browse on this site, cookies collect data to enhance your experience and personalize the content and advertising you see.
Visit our Privacy Policy to learn more. By continuing to use the site, you agree to this use of cookies and data.
  • In Österreich
  • Länderverzeichnis
  • Für 7 Tage
  • Wassertemperatur
  • Wetterkarte
  • News
  • Widgets
  • user-avatar
    Anmelden

    Stündliche Wetter Jaltocán

    Heute, 15 Dezember, Sonntag

    Zeit Temperatur Niederschläge Wind Luftdruck Luftfeuchtigkeit
    00:00 +20°C° 0 mm 1 m/S 743 mmHg 80%
    01:00 +20°C° 0 mm 1 m/S 743 mmHg 80%
    02:00 +20°C° 0 mm 1 m/S 743 mmHg 79%
    03:00 +20°C° 0 mm 1 m/S 743 mmHg 78%
    04:00 +19°C° 0 mm 1 m/S 743 mmHg 77%
    05:00 +19°C° 0 mm 1 m/S 743 mmHg 75%
    06:00 +21°C° 0 mm 1 m/S 743 mmHg 71%
    07:00 +20°C° 0 mm 0 m/S 744 mmHg 67%
    08:00 +22°C° 0 mm 0 m/S 745 mmHg 64%
    09:00 +24°C° 0 mm 0 m/S 744 mmHg 61%
    10:00 +28°C° 0 mm 1 m/S 744 mmHg 57%
    11:00 +29°C° 0 mm 1 m/S 743 mmHg 54%
    12:00 +30°C° 0 mm 1 m/S 743 mmHg 55%
    13:00 +30°C° 0 mm 1 m/S 742 mmHg 55%
    14:00 +30°C° 0 mm 1 m/S 741 mmHg 55%
    15:00 +28°C° 0 mm 1 m/S 741 mmHg 64%
    16:00 +26°C° 0 mm 1 m/S 741 mmHg 73%
    17:00 +24°C° 0 mm 1 m/S 741 mmHg 82%
    18:00 +24°C° 0 mm 1 m/S 742 mmHg 81%
    19:00 +23°C° 0 mm 1 m/S 742 mmHg 80%
    20:00 +23°C° 0 mm 1 m/S 743 mmHg 80%
    21:00 +22°C° 0 mm 1 m/S 743 mmHg 77%
    22:00 +22°C° 0 mm 1 m/S 743 mmHg 75%
    23:00 +22°C° 0 mm 1 m/S 743 mmHg 73%

    Morgen, 16 Dezember, Montag

    Zeit Temperatur Niederschläge Wind Luftdruck Luftfeuchtigkeit
    00:00 +21°C° 0 mm 1 m/S 743 mmHg 73%
    01:00 +21°C° 0 mm 1 m/S 742 mmHg 73%
    02:00 +21°C° 0 mm 1 m/S 742 mmHg 73%
    03:00 +21°C° 0 mm 1 m/S 742 mmHg 71%
    04:00 +21°C° 0 mm 1 m/S 742 mmHg 69%
    05:00 +21°C° 0 mm 1 m/S 742 mmHg 67%
    06:00 +22°C° 0 mm 1 m/S 743 mmHg 65%
    07:00 +22°C° 0 mm 0 m/S 744 mmHg 62%
    08:00 +23°C° 0 mm 0 m/S 744 mmHg 60%
    09:00 +25°C° 0 mm 0 m/S 744 mmHg 56%
    10:00 +29°C° 0 mm 1 m/S 744 mmHg 53%
    11:00 +31°C° 0 mm 1 m/S 743 mmHg 49%
    12:00 +31°C° 0 mm 1 m/S 742 mmHg 49%
    13:00 +31°C° 0 mm 1 m/S 742 mmHg 49%
    14:00 +32°C° 0 mm 1 m/S 741 mmHg 48%
    15:00 +30°C° 0 mm 1 m/S 741 mmHg 56%
    16:00 +26°C° 0 mm 0 m/S 742 mmHg 63%
    17:00 +24°C° 0 mm 0 m/S 742 mmHg 71%
    18:00 +25°C° 0 mm 1 m/S 743 mmHg 72%
    19:00 +24°C° 0 mm 1 m/S 744 mmHg 72%
    20:00 +24°C° 0 mm 1 m/S 745 mmHg 73%
    21:00 +23°C° 0 mm 1 m/S 745 mmHg 72%
    22:00 +23°C° 0 mm 1 m/S 745 mmHg 72%
    23:00 +23°C° 0 mm 1 m/S 746 mmHg 71%

    übermorgen, 17 Dezember, Dienstag

    Zeit Temperatur Niederschläge Wind Luftdruck Luftfeuchtigkeit
    00:00 +22°C° 0 mm 1 m/S 746 mmHg 72%
    01:00 +22°C° 0 mm 1 m/S 746 mmHg 73%
    02:00 +22°C° 0 mm 1 m/S 746 mmHg 74%
    03:00 +21°C° 0 mm 2 m/S 746 mmHg 72%
    04:00 +21°C° 0 mm 2 m/S 747 mmHg 70%
    05:00 +23°C° 0 mm 2 m/S 748 mmHg 68%
    06:00 +21°C° 0.4 mm 2 m/S 749 mmHg 72%
    07:00 +19°C° 0.4 mm 2 m/S 749 mmHg 76%
    08:00 +18°C° 0.4 mm 2 m/S 750 mmHg 80%
    09:00 +18°C° 0.1 mm 2 m/S 750 mmHg 77%
    10:00 +18°C° 0.1 mm 2 m/S 750 mmHg 73%
    11:00 +17°C° 0.1 mm 2 m/S 750 mmHg 70%
    12:00 +17°C° 0 mm 2 m/S 750 mmHg 67%
    13:00 +18°C° 0 mm 1 m/S 749 mmHg 64%
    14:00 +18°C° 0 mm 1 m/S 749 mmHg 61%
    15:00 +18°C° 0 mm 1 m/S 750 mmHg 60%
    16:00 +16°C° 0 mm 1 m/S 750 mmHg 60%
    17:00 +16°C° 0 mm 1 m/S 751 mmHg 59%
    18:00 +16°C° 0 mm 1 m/S 752 mmHg 59%
    19:00 +16°C° 0 mm 1 m/S 752 mmHg 59%
    20:00 +15°C° 0 mm 1 m/S 753 mmHg 59%
    21:00 +15°C° 0 mm 1 m/S 753 mmHg 57%
    22:00 +15°C° 0 mm 1 m/S 754 mmHg 55%
    23:00 +14°C° 0 mm 1 m/S 754 mmHg 53%

    18 Dezember, Mittwoch

    Zeit Temperatur Niederschläge Wind Luftdruck Luftfeuchtigkeit
    00:00 +14°C° 0 mm 1 m/S 754 mmHg 53%
    01:00 +12°C° 0 mm 0 m/S 754 mmHg 52%
    02:00 +12°C° 0 mm 0 m/S 754 mmHg 52%
    03:00 +11°C° 0 mm 0 m/S 754 mmHg 53%
    04:00 +12°C° 0 mm 1 m/S 754 mmHg 53%
    05:00 +11°C° 0 mm 1 m/S 755 mmHg 54%
    06:00 +12°C° 0 mm 1 m/S 755 mmHg 52%
    07:00 +13°C° 0 mm 1 m/S 756 mmHg 50%
    08:00 +13°C° 0 mm 2 m/S 756 mmHg 48%
    09:00 +14°C° 0 mm 2 m/S 756 mmHg 46%
    10:00 +15°C° 0 mm 2 m/S 755 mmHg 44%
    11:00 +16°C° 0 mm 2 m/S 755 mmHg 43%
    12:00 +17°C° 0 mm 2 m/S 754 mmHg 44%
    13:00 +17°C° 0 mm 2 m/S 753 mmHg 45%
    14:00 +17°C° 0 mm 2 m/S 752 mmHg 46%
    15:00 +15°C° 0 mm 1 m/S 752 mmHg 51%
    16:00 +14°C° 0 mm 1 m/S 752 mmHg 56%
    17:00 +12°C° 0 mm 0 m/S 752 mmHg 61%
    18:00 +11°C° 0 mm 0 m/S 753 mmHg 63%
    19:00 +12°C° 0 mm 1 m/S 753 mmHg 64%
    20:00 +11°C° 0 mm 1 m/S 754 mmHg 66%
    21:00 +12°C° 0 mm 1 m/S 753 mmHg 65%
    22:00 +12°C° 0 mm 1 m/S 753 mmHg 64%
    23:00 +12°C° 0 mm 1 m/S 753 mmHg 63%

    19 Dezember, Donnerstag

    Zeit Temperatur Niederschläge Wind Luftdruck Luftfeuchtigkeit
    00:00 +12°C° 0 mm 1 m/S 752 mmHg 64%
    01:00 +12°C° 0 mm 1 m/S 752 mmHg 65%
    02:00 +12°C° 0 mm 1 m/S 751 mmHg 66%
    03:00 +11°C° 0 mm 0 m/S 751 mmHg 65%
    04:00 +11°C° 0 mm 0 m/S 751 mmHg 64%
    05:00 +11°C° 0 mm 0 m/S 751 mmHg 64%
    06:00 +12°C° 0 mm 0 m/S 752 mmHg 62%
    07:00 +13°C° 0 mm 0 m/S 752 mmHg 61%
    08:00 +14°C° 0 mm 0 m/S 752 mmHg 60%
    09:00 +15°C° 0 mm 0 m/S 751 mmHg 58%
    10:00 +18°C° 0 mm 1 m/S 751 mmHg 56%
    11:00 +19°C° 0 mm 1 m/S 750 mmHg 54%
    12:00 +20°C° 0 mm 1 m/S 749 mmHg 56%
    13:00 +20°C° 0 mm 1 m/S 748 mmHg 58%
    14:00 +20°C° 0 mm 2 m/S 747 mmHg 60%
    15:00 +19°C° 0 mm 1 m/S 747 mmHg 68%
    16:00 +18°C° 0 mm 1 m/S 747 mmHg 76%
    17:00 +15°C° 0 mm 1 m/S 747 mmHg 85%
    18:00 +15°C° 0 mm 1 m/S 748 mmHg 86%
    19:00 +15°C° 0 mm 1 m/S 748 mmHg 88%
    20:00 +14°C° 0 mm 1 m/S 749 mmHg 90%
    21:00 +14°C° 0 mm 1 m/S 749 mmHg 90%
    22:00 +14°C° 0 mm 1 m/S 748 mmHg 91%
    23:00 +14°C° 0 mm 1 m/S 748 mmHg 91%

    20 Dezember, Freitag

    Zeit Temperatur Niederschläge Wind Luftdruck Luftfeuchtigkeit
    00:00 +14°C° 0 mm 1 m/S 748 mmHg 91%
    01:00 +13°C° 0 mm 1 m/S 748 mmHg 91%
    02:00 +13°C° 0 mm 1 m/S 747 mmHg 91%
    03:00 +13°C° 0 mm 1 m/S 748 mmHg 90%
    04:00 +13°C° 0 mm 1 m/S 748 mmHg 90%
    05:00 +14°C° 0 mm 1 m/S 748 mmHg 89%
    06:00 +15°C° 0 mm 1 m/S 749 mmHg 84%
    07:00 +16°C° 0 mm 0 m/S 750 mmHg 78%
    08:00 +17°C° 0 mm 0 m/S 750 mmHg 73%
    09:00 +21°C° 0 mm 1 m/S 750 mmHg 69%
    10:00 +22°C° 0 mm 1 m/S 750 mmHg 66%
    11:00 +23°C° 0 mm 2 m/S 750 mmHg 62%
    12:00 +23°C° 0 mm 1 m/S 750 mmHg 63%
    13:00 +24°C° 0 mm 1 m/S 750 mmHg 63%
    14:00 +24°C° 0 mm 1 m/S 749 mmHg 64%
    15:00 +22°C° 0 mm 1 m/S 750 mmHg 71%
    16:00 +21°C° 0 mm 1 m/S 751 mmHg 77%
    17:00 +19°C° 0 mm 1 m/S 751 mmHg 84%
    18:00 +19°C° 0 mm 1 m/S 752 mmHg 85%
    19:00 +16°C° 0 mm 0 m/S 752 mmHg 86%
    20:00 +16°C° 0 mm 0 m/S 752 mmHg 87%
    21:00 +18°C° 0 mm 1 m/S 753 mmHg 87%
    22:00 +18°C° 0 mm 1 m/S 753 mmHg 87%
    23:00 +16°C° 0 mm 1 m/S 753 mmHg 87%
    Mehr zeigen